Погода в Улановке

Россия / Кемеровская область (Кузбасс)     56°23′57″N   86°06′10″E
темп.,
°C
ветер,
м/с
пор.,
м/с
влажн.,
%
обл.,
%
осадки,
мм/ч
давл.,
гПа
погр.,
м
7 марта, вс
вс701:00−3юз71688100 0.2 10061163
04:00−4зюз6138380 0.8 10061028
07:00−8зюз6138972 0.8 1009705
10:00−9зюз6138780 0.0 1011772
13:00−7зюз6118265 0.0 1014988
16:00−6зюз5107931 0.0 10161344
19:00−8юз4118666 0.1 1018526
22:00−10юз4118949 0.0 1020378
8 марта, пн
пн801:00−13ююз359230 0.0 1021119
04:00−14ю239066 0.0 102159
07:00−11ююв398783 0.0 1018251
10:00−7ю61489100 0.0 1014554
13:00−2ю61388100 0.0 1009780
16:00+1ююз71481100 0.0 10051028
19:00−1ююз71581100 0.0 10031029
22:00−3юз71493100 0.4 10041080
9 марта, вт
вт901:00−6зсз71383100 1.1 1009678
04:00−11зюз4119261 0.0 1014413
07:00−11юз4119281 0.0 1018473
10:00−12зюз51289100 0.0 1020647
13:00−9юз6108496 0.0 1021858
16:00−8юз6118081 0.0 1021832
19:00−9ююз4128581 0.0 1021663
22:00−9ююз41387100 0.0 1020570
10 марта, ср
ср1001:00−10ююз4138797 0.0 1019491
04:00−11ююз4138644 0.0 1017426
07:00−12ююз4128970 0.0 1017394
10:00−10юз5128569 0.0 1016479
13:00−5юз498184 0.0 1015601
16:00−4юз3780100 0.0 1014663
19:00−6ю2290100 0.0 101221
22:00−5ююв2495100 0.0 1010106
11 марта, чт
чт1101:00−2ююв41293100 0.0 1004553
04:00+1ю61582100 0.3 9971041
07:00+1ююз71598100 2.5 9951023
10:00−5юз101884100 0.6 9991092
13:00−5зюз91686100 0.7 10061096
16:00−5юз71187100 0.1 10091070
19:00−6юз61288100 0.3 1011995
22:00−8юз61388100 0.1 1014867